Location: Bodest
(46.3000°N, 22.5667°E)
Time: 00:31:14
(UTC+00:00)

Cosmos 1300 - Pass Details

Date: 16 October 2021
Orbit: 509 x 512 km, 82.5° (Epoch: 26 November)

Event Time Altitude Azimuth Distance (km) Brightness Sun altitude
Rises 16:54:40 0° 159° (SSE) 2,614 6.1 -13.4°
Reaches altitude 10° 16:57:02 10° 145° (SE) 1,733 5.0 -13.8°
Enters shadow 16:58:16 17° 131° (SE) 1,356 4.4 -14.0°
Exits shadow 17:03:06 11° 36° (NE) 1,669 5.0 -14.9°
Drops below altitude 10° 17:03:25 10° 33° (NNE) 1,772 5.1 -14.9°
Sets 17:05:43 0° 21° (NNE) 2,637 6.1 -15.3°
